Regional Weather Roundup
Issued by NWS Jackson, KY

Home | Current Version | Previous Version | Text Only | Print | Product List | Glossary Off
Versions: 1 2 3 4 5 6 7 8 9 10 11 12 13 14 15 16 17 18 19 20 21 22 23 24 25 26 27 28 29 30 31 32 33 34 35 36 37 38 39 40 41 42 43 44 45 46 47 48 49 50

000
ASUS43 KJKL 251111
RWRJKL

EAST KENTUCKY HOURLY WEATHER ROUNDUP
NATIONAL WEATHER SERVICE JACKSON KY
600 AM EST SUN JAN 25 2015

NOTE: "FAIR" INDICATES FEW OR NO CLOUDS BELOW 12,000 FEET WITH
NO SIGNIFICANT WEATHER AND/OR OBSTRUCTIONS TO VISIBILITY.

* THESE REPORTS ARE NOT UNDER NWS QUALITY CONTROL AND MAY NOT
  REPORT WEATHER SUCH AS PRECIPITATION AND FOG.

KYZ079-080-083-085-087-088-110-112-115-119-120-251200
...EASTERN KENTUCKY...

CITY           SKY/WX    TMP DP  RH WIND       PRES   REMARKS
JACKSON        CLEAR     34  29  82 S5        29.80S WCI  30
LONDON         PTCLDY    35  26  69 S7        29.82F WCI  29
SOMERSET*      MOCLDY    32  30  93 CALM      29.83F
MONTICELLO*    PTCLDY    39  32  76 S7        29.83F WCI  34
MIDDLESBORO*   PTCLDY    26  25  97 CALM      29.88S
HARLAN APT*    MOSUNNY   28  28 100 CALM      29.86R
BLACK MTN*       N/A     25  25 100 S6          N/A  WCI  18
PIKEVILLE APT* CLEAR     36  28  75 S6        29.80F WCI  31
BIG SANDY*     PTSUNNY   36  31  81 SW5       29.80S WCI  32
MOREHEAD APT*  PTSUNNY   34  30  86 CALM      29.80S
$$

KYZ035-036-041-042-044-050-067-078-099-251200
...CENTRAL KENTUCKY...

CITY           SKY/WX    TMP DP  RH WIND       PRES   REMARKS
MT STERLING*   CLOUDY    36  32  87 SW9       29.79F WCI  29
FLEMING/MASON* CLOUDY    34  31  88 S8        29.77F WCI  27
DANVILLE*      MOCLDY    34  32  93 SW12      29.79F WCI  25
RICHMOND*      MOCLDY    36  30  80 SW9       29.79S WCI  29
LEXINGTON      CLOUDY    35  30  82 S10       29.77F WCI  27
FRANKFORT      CLOUDY    37  30  75 S12       29.75F WCI  29
$$

KYZ091>093-OHZ055-061-077-WVZ005-015-034-035-042-251200
...SOUTHERN OHIO/WEST VIRGINIA...

CITY           SKY/WX    TMP DP  RH WIND       PRES   REMARKS
COVINGTON      CLOUDY    36  30  79 S8        29.72F WCI  30
COLUMBUS       CLOUDY    34  29  82 S3        29.74F
DAYTON         MOCLDY    34  30  85 S8        29.72S WCI  27
WILMINGTON     PTCLDY    31  27  85 S7        29.73F FOG     WCI  24
HUNTINGTON     CLOUDY    33  31  92 S5        29.78F WCI  29
CHARLESTON     MOCLDY    33  30  88 CALM      29.80F
PINEVILLE*     MOCLDY    30  30 100 MISG      29.86F FOG
BECKLEY        CLEAR     30  27  88 SW5       29.78S WCI  25
BLUEFIELD      CLEAR     29  25  85 W7        29.79S WCI  22
$$

VAZ002-007-008-TNZ017-027-036-066-071-251200
...SOUTHWEST VIRGINIA/EAST TENNESSEE...

CITY           SKY/WX    TMP DP  RH WIND       PRES   REMARKS
WISE*          CLEAR     32  27  80 S7        29.82R WCI  26
JONESVILLE*    SUNNY     23  23 100 CALM      29.91R
ABINGDON*      CLEAR     30  27  90 W3        29.86R
BRISTOL        CLEAR     26  24  92 CALM      29.89S
KNOXVILLE      PTCLDY    33  27  78 SW9       29.89F WCI  25
OAK RIDGE      CLEAR     29  26  89 CALM      29.91F
CROSSVILLE     PTCLDY    32  27  81 CALM      29.85F
NASHVILLE      MOCLDY    34  30  85 S3        29.81F
$$

...KEY TO REMARKS...
VSB - VISIBILITY IN MILES
WCI - WIND CHILL INDEX
HX  - HEAT INDEX

$$


USA.gov is the U.S. government's official web portal to all federal, state and local government web resources and services.